Regional Weather Roundup
Issued by NWS

Home | Current Version | Previous Version | Graphics & Text | Print | Product List | Glossary On
Versions: 1 2 3 4 5 6 7 8 9 10 11 12 13 14 15 16 17 18 19 20 21 22 23 24 25 26 27
000
ASUS45 KTFX 190410
RWRMT
MONTANA REGIONAL WEATHER ROUNDUP
NATIONAL WEATHER SERVICE GREAT FALLS MT
900 PM MST THU JAN 18 2018

NOTE: "FAIR" INDICATES FEW OR NO CLOUDS BELOW 12000 FEET WITH NO
SIGNIFICANT WEATHER AND/OR OBSTRUCTIONS TO VISIBILITY.

MTZ001>007-043-190500-
WEST OF THE DIVIDE

CITY           SKY/WX    TMP DP  RH WIND       PRES   REMARKS
KALISPELL      MOCLDY    36  34  92 SE10      29.74R WCI  28
MISSOULA       LGT RAIN  34  33  96 CALM      29.77S FOG
BUTTE          LGT SNOW  33  31  92 N3        29.72F VSB 3/4
MULLAN PASS    LGT SNOW  25  25 100 VRB3      29.68F VSB 3/4
ANACONDA         N/A     34  34 100 S3        29.71F
DEER LODGE       N/A     34  34 100 CALM      29.75S VSB 3/4
EUREKA           N/A     37  25  60 MISG      29.73R
HAMILTON         N/A     36  36 100 N8        29.75F WCI  29
RONAN            N/A     36  34  93 SE13      29.77F WCI  27
$$

MTZ008-052>055-190500-
SOUTHWEST MONTANA

CITY           SKY/WX    TMP DP  RH WIND       PRES   REMARKS
BOZEMAN        MOCLDY    40  31  70 NW18      29.65F
DILLON         CLOUDY    36  29  75 S20       29.64S WCI  25
ENNIS          MOCLDY    43  30  61 S37       29.70F
W YELLOWSTONE  CLOUDY    36  28  75 VRB6G16   29.82F WCI  31
THREE FORKS      N/A     39  33  79 NW22      29.72R WCI  28
$$

MTZ009-010-012-014-046-048-049-054-190500-
EAST SLOPES AND CENTRAL MONTANA

CITY           SKY/WX    TMP DP  RH WIND       PRES   REMARKS
CUT BANK       FAIR      34  28  79 SW12      29.61F WCI  25
GREAT FALLS    CLOUDY    38  32  79 SW12      29.70R WCI  30
MALMSTROM AFB  LGT RAIN  38  35  91 SW8       29.70S
HELENA         MIX PCPN  36  35  96 SE5       29.71F
AUGUSTA        CLOUDY    34  31  87 W3        29.67F
BOWMANS CRNR   LGT RAIN  35  32  88 S3        29.68S
CHOTEAU          N/A     37  28  70 W6        29.69F
CONRAD           N/A     37  32  82 SW15      29.72  WCI  28
FAIRFIELD      CLOUDY    37  31  77 NW6       29.67S
POWER          CLOUDY    37  31  81 W9        29.69S WCI  30
RAYNESFORD     DRIZZLE   40  34  80 SW13      29.70R
ULM            LGT RAIN  37  35  94 SW5       29.71R
WHITE SULPHUR    N/A     36  32  87 N13       29.71R WCI  27
$$

MTZ011-013-016-021-045-047-050-051-190500-
NORTH CENTRAL MONTANA

CITY           SKY/WX    TMP DP  RH WIND       PRES   REMARKS
HAVRE          CLOUDY    37  32  82 SW21      29.61F WCI  26
LEWISTOWN      LGT RAIN  39  32  76 CALM      29.69S
N BAR RANCH    MOCLDY    39  30  70 NW12      29.69S WCI  32
CHINOOK          N/A     39  34  81 W14       29.59F WCI  31
DENTON         LGT RAIN  39  33  78 MISG      29.65R
GEYSER         LGT RAIN  36  33  88 W12       29.68F WCI  28
GRASS RANGE    CLOUDY    41  32  71 W17       29.64F
STANFORD       LGT RAIN  39  33  78 NW5       29.69R
WINIFRED       SHOWER    39  33  80 W8        29.67R
$$

MTZ017>020-022>027-061-062-190500-
NORTHEAST MONTANA

CITY           SKY/WX    TMP DP  RH WIND       PRES   REMARKS
GLASGOW        CLOUDY    35  29  78 S3        29.59F
GLENDIVE       FAIR      31  26  82 S10       29.64F WCI  22
JORDAN           N/A     37  31  78 W3        29.62F
MALTA          CLOUDY    39  32  75 W9        29.60S
SIDNEY         CLOUDY    36  30  79 S13       29.61F WCI  27
WOLF POINT     CLOUDY    33  26  75 W7        29.60F WCI  27
PLENTYWOOD       N/A     43  30  61 W9        29.53F
POPLAR           N/A     36  28  75 SW5       29.60F
SCOBEY           N/A     40  27  60 SW14      29.55F
$$

MTZ028>42-056>058-190500-
SOUTHCENTRAL AND SOUTHEAST MONTANA

CITY           SKY/WX    TMP DP  RH WIND       PRES   REMARKS
BAKER          FAIR      34  28  79 CALM      29.68F
BILLINGS       MOCLDY    43  27  53 SW9       29.64F
LIVINGSTON     MOCLDY    51  31  46 SW29G40   29.60F
MILES CITY     FAIR      33  26  75 S9        29.65F WCI  25
BIG TIMBER     PTCLDY    48  28  46 VRB5      29.65F
FORSYTH          N/A     34  27  75 S7        29.64F WCI  28
HARLOWTON      MOCLDY    38  31  78 N14       29.66S WCI  29
LAUREL           N/A     43  28  56 SW13      29.64F
ROUNDUP          N/A     36  26  67 W6        29.60  WCI  31
$$

REGIONAL REPORTS...DAKOTAS

CITY           SKY/WX    TMP DP  RH WIND       PRES   REMARKS
WILLISTON      CLOUDY    53  30  41 SW12      29.58F
MINOT          FAIR      41  30  65 SW20      29.51F
DICKINSON      FAIR      39  28  64 W14       29.60F WCI  31
BEACH          FAIR      37  28  70 SW10      29.66F WCI  30
CROSBY         CLOUDY    37  32  81 W16G22    29.53R WCI  28
TIOGA          CLOUDY    37  34  87 SW23      29.55R WCI  26
WATFORD CITY   CLOUDY    37  30  75 SW13      29.58F WCI  29
BISMARCK       FAIR      27  24  89 CALM      29.63F
GRAND FORKS    MOCLDY    27  23  85 S10       29.56F WCI  17
FARGO          FAIR      30  26  85 S12       29.62F WCI  20
BUFFALO SD       N/A     44  29  55 CALM      29.61F
RAPID CITY     FAIR      52  26  36 W14       29.71F
$$

REGIONAL REPORTS...WYOMING/IDAHO/WASHINGTON

CITY           SKY/WX    TMP DP  RH WIND       PRES   REMARKS
GILLETTE       FAIR      46  31  55 SW23G33   29.70F
SHERIDAN       FAIR      44  30  57 S10       29.65F
BUFFALO WY     FAIR      55  23  28 W15G25    29.71F
CODY           FAIR      41  28  60 SE6       29.74F
YELLOWSTONE LA   N/A     32  27  81 CALM      29.87F
IDAHO FALLS    CLOUDY    44  33  65 SW14      29.81F
SALMON         MIX PCPN  36  35  96 S8        29.76R FOG     WCI  30
BOISE          LGT RAIN  40  38  93 N3        29.86S
SPOKANE        FAIR      34  34 100 S6        29.77F WCI  29
$$

REGIONAL REPORTS...ALBERTA

CITY           SKY/WX    TMP DP  RH WIND       PRES   REMARKS
CALGARY        PTCLDY    34  12  40 W13G20    29.45R WCI  25
CARDSTON         N/A     36  19  51 SW8         N/A  WCI  29
EDMONTON       MOCLDY    36  27  69 NW14G20   29.39R WCI  27
FORT MCMURRAY  CLOUDY    37  34  87 SW9       29.20S WCI  31
HIGH LEVEL     FLURRIES  27  27 100 VRB2      29.23R
LETHBRIDGE     PTCLDY    37  25  60 SW23      29.56F WCI  26
LLOYDMINSTER   MOCLDY    34  28  80 W14       29.31S WCI  24
MEDICINE HAT   MOCLDY    37  30  75 W21G26    29.50S WCI  27
PEACE RIVER    CLOUDY    34  28  80 W6        29.30R WCI  29
PINCHER CREEK  CLOUDY    34  21  60 SW20G26   29.61S WCI  22
WATERTON GATE    N/A     36  18  48 SW18G25     N/A  WCI  25
$$

REGIONAL REPORTS...SASKATCHEWAN

CITY           SKY/WX    TMP DP  RH WIND       PRES   REMARKS
CORONACH         N/A     39  34  81 W16         N/A  WCI  30
CYPRESS HILLS    N/A     36  27  69 W20G29      N/A  WCI  25
ESTEVAN        PTCLDY    36  28  75 W10G17    29.50F WCI  28
MOOSE JAW        N/A     43  30  61 W25G33      N/A
PRINCE ALBERT  PTCLDY    23  21  93 W5        29.29R
REGINA         MOCLDY    34  30  86 S8        29.43F WCI  27
ROCKGLEN         N/A     37  30  75 W18         N/A  WCI  27
SASKATOON      MOCLDY    32  28  86 W12       29.32F WCI  23
SWIFT CURRENT  CLOUDY    39  30  70 W22       29.45F WCI  29
VAL MARIE        N/A     39  30  70 W22         N/A  WCI  29
$$




USA.gov is the U.S. government's official web portal to all federal, state and local government web resources and services.